Showing default

GAOFEN 12, 44819

Orbit data source: Space-Track

GAOFEN 12, 44819 is a payload satellite owned by PLA SSF (CN) in SSO that was launched on Wed, 27 Nov 2019 UTC via a CHANG ZHENG 4C launch vehicle from the Taiyaun Space Center, China (TSC). Payload-class satellites include a variety of spacecraft equipped with specific instruments for various scientific and technological missions. These include communications satellites like Starlink; space stations such as the ISS; scientific satellites like the Hubble; Earth observation satellites from companies like Planet Labs, Umbra, and HawkEye 360; GPS; miniature CubeSats for education and research; and military/defense satellites.

Loading next visibility...
Identifier
44819, 2019-082A
Orbit
SSO
Country
Flag of CNCN / PRC
Related business
Manufacturer
SAST
Mission
Operational Defense Radar Imaging
Bus & Motor
CS-L3000B?, Unknown motor
Mass
~3,000 kg wet, ~3,000 kg dry
Launch date (UTC)
2019-11-27 (7 years ago)
Launch vehicle
CHANG ZHENG 4C
Launch site
Taiyaun Space Center, China (TSC)
Object type
Payload
Rocket body
Debris
Shape & HBR
Box + 3 Pan, Unknown HBR
Radar Cross Section
10.846 m², Large (>1 m²)

Expand to show TLE details & history
Last TLE update: 21 hours ago

TLE from 21 hours ago
0 GAOFEN 12
1 44819U 19082A   26172.54051442  .00000258  00000-0  40353-4 0  9993
2 44819  97.8101 178.8051 0002130  65.6428 294.5007 14.80461284354738
Epoch: 2026-06-21T12:58Z
TLE epoch observation values (Epoch: 2026-06-21T12:58:20.445Z)
Latitude
-0.00001°
Longitude
74.4806°
Altitude
630.275 km
Speed
7.544 km/s
True Right ascension
11h 55m 13s
True Declination
0° 00' 00"
Sunlit
Object was in daylight at epoch
Visualization orbit readout
Latitude
Unknown
Longitude
Unknown
Altitude
Unknown
Speed
Unknown
Apparent Right ascension
Unknown
Apparent Declination
Unknown
Sunlit
N/A
Visualization observer readout
Local Sidereal Time
21:27:11
Azimuth
Unknown
Elevation
Unknown
Doppler factor
Unknown
Orbital elements
Apogee altitude
626.396 km
Perigee altitude
623.413 km
Semi-major axis
7,003.042 km
Eccentricity
0.00021
Inclination
97.8101°
RAAN
178.8051°
Arg. of periapsis
65.6428°
True anomaly
294.47849°
Mean anomaly
294.5007°
Eccentric anomaly
294.48959°
Mean motion
3.70351 °/min
Orbital period
97.21 mins
BSTAR
0.000040353
Loading maneuver chart data...
Computing Atmospheric mass density...
Loading historical data...
Loading historical data...
Loading historical data...
Loading historical data...
Loading historical data...
Loading historical data...
Loading historical data...
Other satellites on launch #82 in the year 2019 (2019-11-27 UTC)

Documentation

Showing up to 5 results
|